Time,TemperatureF,DewpointF,PressureIn,WindDirection,WindDirectionDegrees,WindSpeedMPH,WindSpeedGustMPH,Humidity,HourlyPrecipIn,Conditions,Clouds,dailyrainin,SoftwareType,DateUTC
2013-08-28 00:05:00,65.3,65.0,29.85,NNE,33,0.0,0.0,99,0.00,,,0.00,weatherlink.com 1.10,2013-08-28 04:05:00,
2013-08-28 00:20:00,65.0,65.0,29.85,NNE,33,0.0,0.0,99,0.00,,,0.00,weatherlink.com 1.10,2013-08-28 04:20:00,
2013-08-28 00:35:00,64.9,65.0,29.85,NNE,33,0.0,0.0,99,0.00,,,0.00,weatherlink.com 1.10,2013-08-28 04:35:00,
2013-08-28 00:50:00,64.4,64.0,29.85,NNE,33,0.0,0.0,99,0.00,,,0.00,weatherlink.com 1.10,2013-08-28 04:50:00,
2013-08-28 01:05:00,64.4,64.0,29.85,NNE,33,0.0,0.0,100,0.00,,,0.00,weatherlink.com 1.10,2013-08-28 05:05:00,
2013-08-28 01:20:00,64.2,64.0,29.84,NNE,33,0.0,0.0,99,0.00,,,0.00,weatherlink.com 1.10,2013-08-28 05:20:00,
2013-08-28 01:35:00,64.1,64.0,29.84,NNE,33,0.0,0.0,100,0.00,,,0.00,weatherlink.com 1.10,2013-08-28 05:35:00,
2013-08-28 01:50:00,63.8,64.0,29.84,NNE,33,0.0,0.0,100,0.00,,,0.00,weatherlink.com 1.10,2013-08-28 05:50:00,
2013-08-28 02:06:00,63.6,64.0,29.84,NNE,32,0.0,0.0,100,0.00,,,0.00,weatherlink.com 1.10,2013-08-28 06:06:00,
2013-08-28 02:21:00,64.0,64.0,29.83,NNE,33,0.0,1.0,100,0.00,,,0.00,weatherlink.com 1.10,2013-08-28 06:21:00,
2013-08-28 02:36:00,64.1,64.0,29.83,NNE,33,0.0,1.0,100,0.00,,,0.00,weatherlink.com 1.10,2013-08-28 06:36:00,
2013-08-28 02:51:00,63.8,64.0,29.83,NNE,33,0.0,0.0,100,0.00,,,0.00,weatherlink.com 1.10,2013-08-28 06:51:00,
2013-08-28 03:06:00,63.5,64.0,29.83,NNE,33,0.0,0.0,100,0.00,,,0.00,weatherlink.com 1.10,2013-08-28 07:06:00,
2013-08-28 03:21:00,63.3,63.0,29.83,NNE,33,0.0,0.0,100,0.00,,,0.00,weatherlink.com 1.10,2013-08-28 07:21:00,
2013-08-28 03:36:00,63.3,63.0,29.83,NNE,33,0.0,0.0,100,0.00,,,0.00,weatherlink.com 1.10,2013-08-28 07:36:00,
2013-08-28 03:51:00,63.4,63.0,29.83,NNE,33,0.0,0.0,100,0.00,,,0.00,weatherlink.com 1.10,2013-08-28 07:51:00,
2013-08-28 04:06:00,63.2,63.0,29.83,NNE,33,0.0,0.0,100,0.00,,,0.00,weatherlink.com 1.10,2013-08-28 08:06:00,
2013-08-28 04:21:00,63.3,63.0,29.83,NNE,33,0.0,0.0,100,0.00,,,0.00,weatherlink.com 1.10,2013-08-28 08:21:00,
2013-08-28 04:36:00,63.2,63.0,29.83,NNE,32,0.0,0.0,100,0.00,,,0.00,weatherlink.com 1.10,2013-08-28 08:36:00,
2013-08-28 04:51:00,63.1,63.0,29.83,NNE,33,0.0,0.0,100,0.00,,,0.00,weatherlink.com 1.10,2013-08-28 08:51:00,
2013-08-28 05:06:00,63.1,63.0,29.84,NNE,33,0.0,0.0,100,0.00,,,0.00,weatherlink.com 1.10,2013-08-28 09:06:00,
2013-08-28 05:21:00,62.9,63.0,29.83,NNE,33,0.0,0.0,100,0.00,,,0.00,weatherlink.com 1.10,2013-08-28 09:21:00,
2013-08-28 05:36:00,62.7,63.0,29.84,NNE,33,0.0,0.0,100,0.00,,,0.00,weatherlink.com 1.10,2013-08-28 09:36:00,
2013-08-28 05:51:00,62.9,63.0,29.84,NNE,33,0.0,0.0,100,0.00,,,0.00,weatherlink.com 1.10,2013-08-28 09:51:00,
2013-08-28 06:06:00,62.8,63.0,29.84,NNE,32,0.0,0.0,100,0.00,,,0.00,weatherlink.com 1.10,2013-08-28 10:06:00,
2013-08-28 06:21:00,62.8,63.0,29.85,NNE,33,0.0,0.0,100,0.00,,,0.00,weatherlink.com 1.10,2013-08-28 10:21:00,
2013-08-28 06:36:00,63.3,63.0,29.85,NNE,33,0.0,0.0,100,0.00,,,0.00,weatherlink.com 1.10,2013-08-28 10:36:00,
2013-08-28 06:51:00,64.0,64.0,29.85,NNE,33,0.0,0.0,100,0.00,,,0.00,weatherlink.com 1.10,2013-08-28 10:51:00,
2013-08-28 07:06:00,64.5,65.0,29.85,NNE,33,0.0,0.0,100,0.00,,,0.00,weatherlink.com 1.10,2013-08-28 11:06:00,
2013-08-28 07:21:00,64.7,65.0,29.85,NNE,33,1.0,1.0,100,0.00,,,0.00,weatherlink.com 1.10,2013-08-28 11:21:00,
2013-08-28 07:36:00,64.7,65.0,29.86,NNE,33,0.0,0.0,100,0.00,,,0.00,weatherlink.com 1.10,2013-08-28 11:36:00,
2013-08-28 07:51:00,65.2,65.0,29.86,NNE,33,0.0,0.0,100,0.00,,,0.00,weatherlink.com 1.10,2013-08-28 11:51:00,
2013-08-28 08:06:00,65.3,65.0,29.86,NNE,23,1.0,2.0,100,0.00,,,0.00,weatherlink.com 1.10,2013-08-28 12:06:00,
2013-08-28 08:21:00,65.7,66.0,29.86,North,4,0.0,1.0,100,0.00,,,0.00,weatherlink.com 1.10,2013-08-28 12:21:00,
2013-08-28 08:36:00,66.2,66.0,29.86,NNW,348,0.0,0.0,100,0.00,,,0.00,weatherlink.com 1.10,2013-08-28 12:36:00,
2013-08-28 08:51:00,66.8,67.0,29.86,North,349,0.0,0.0,100,0.00,,,0.00,weatherlink.com 1.10,2013-08-28 12:51:00,
2013-08-28 09:06:00,67.3,67.0,29.86,North,349,0.0,0.0,100,0.00,,,0.00,weatherlink.com 1.10,2013-08-28 13:06:00,
2013-08-28 09:21:00,67.8,68.0,29.86,North,349,0.0,0.0,100,0.00,,,0.00,weatherlink.com 1.10,2013-08-28 13:21:00,
2013-08-28 09:36:00,68.4,68.0,29.86,West,280,0.0,0.0,100,0.00,,,0.00,weatherlink.com 1.10,2013-08-28 13:36:00,
2013-08-28 09:51:00,68.7,69.0,29.86,NNW,347,0.0,1.0,100,0.00,,,0.00,weatherlink.com 1.10,2013-08-28 13:51:00,
2013-08-28 10:06:00,69.9,70.0,29.86,NNW,348,0.0,1.0,99,0.00,,,0.00,weatherlink.com 1.10,2013-08-28 14:06:00,
2013-08-28 10:21:00,70.9,70.0,29.86,WNW,299,0.0,2.0,96,0.00,,,0.00,weatherlink.com 1.10,2013-08-28 14:21:00,
2013-08-28 10:36:00,72.1,71.0,29.86,NNW,337,0.0,2.0,95,0.00,,,0.00,weatherlink.com 1.10,2013-08-28 14:36:00,
2013-08-28 10:51:00,73.0,71.0,29.86,North,358,1.0,3.0,93,0.00,,,0.00,weatherlink.com 1.10,2013-08-28 14:51:00,
2013-08-28 11:06:00,74.5,72.0,29.86,NNW,345,3.0,3.0,92,0.00,,,0.00,weatherlink.com 1.10,2013-08-28 15:06:00,
2013-08-28 11:21:00,75.7,72.0,29.85,SSW,210,0.0,4.0,87,0.00,,,0.00,weatherlink.com 1.10,2013-08-28 15:21:00,
2013-08-28 11:37:00,77.0,72.0,29.85,NNE,20,0.0,3.0,84,0.00,,,0.00,weatherlink.com 1.10,2013-08-28 15:37:00,
2013-08-28 11:52:00,78.3,72.0,29.85,WNW,283,1.0,2.0,82,0.00,,,0.00,weatherlink.com 1.10,2013-08-28 15:52:00,
2013-08-28 12:07:00,79.7,73.0,29.85,ENE,57,1.0,2.0,80,0.00,,,0.00,weatherlink.com 1.10,2013-08-28 16:07:00,
2013-08-28 12:22:00,80.3,74.0,29.84,ESE,103,0.0,3.0,80,0.00,,,0.00,weatherlink.com 1.10,2013-08-28 16:22:00,
2013-08-28 12:37:00,81.9,73.0,29.84,SSW,192,0.0,1.0,75,0.00,,,0.00,weatherlink.com 1.10,2013-08-28 16:37:00,
2013-08-28 12:52:00,82.5,73.0,29.83,NNW,341,1.0,2.0,73,0.00,,,0.00,weatherlink.com 1.10,2013-08-28 16:52:00,
2013-08-28 13:07:00,83.5,73.0,29.82,North,8,1.0,2.0,71,0.00,,,0.00,weatherlink.com 1.10,2013-08-28 17:07:00,
2013-08-28 13:22:00,84.7,72.0,29.82,WSW,242,0.0,1.0,66,0.00,,,0.00,weatherlink.com 1.10,2013-08-28 17:22:00,
2013-08-28 13:37:00,85.3,73.0,29.82,SW,225,1.0,1.0,66,0.00,,,0.00,weatherlink.com 1.10,2013-08-28 17:37:00,
2013-08-28 13:52:00,85.5,70.0,29.82,West,270,1.0,4.0,61,0.00,,,0.00,weatherlink.com 1.10,2013-08-28 17:52:00,
2013-08-28 14:07:00,85.8,72.0,29.81,NNW,329,0.0,1.0,63,0.00,,,0.00,weatherlink.com 1.10,2013-08-28 18:07:00,
2013-08-28 14:22:00,86.6,71.0,29.81,NNW,333,1.0,1.0,59,0.00,,,0.00,weatherlink.com 1.10,2013-08-28 18:22:00,
2013-08-28 14:37:00,87.8,73.0,29.80,SSE,153,0.0,1.0,62,0.00,,,0.00,weatherlink.com 1.10,2013-08-28 18:37:00,
2013-08-28 14:52:00,88.6,72.0,29.80,South,170,0.0,0.0,59,0.00,,,0.00,weatherlink.com 1.10,2013-08-28 18:52:00,
2013-08-28 15:07:00,89.5,71.0,29.79,SSE,160,0.0,1.0,55,0.00,,,0.00,weatherlink.com 1.10,2013-08-28 19:07:00,
2013-08-28 15:22:00,89.4,71.0,29.79,NNW,347,0.0,1.0,55,0.00,,,0.00,weatherlink.com 1.10,2013-08-28 19:22:00,
2013-08-28 15:37:00,89.0,71.0,29.79,ESE,116,0.0,1.0,55,0.00,,,0.00,weatherlink.com 1.10,2013-08-28 19:37:00,
2013-08-28 15:52:00,88.9,73.0,29.78,NNW,330,0.0,0.0,59,0.00,,,0.00,weatherlink.com 1.10,2013-08-28 19:52:00,
2013-08-28 16:07:00,89.3,72.0,29.77,NNE,12,0.0,2.0,56,0.00,,,0.00,weatherlink.com 1.10,2013-08-28 20:07:00,
2013-08-28 16:22:00,88.9,73.0,29.77,NNE,12,0.0,2.0,59,0.00,,,0.00,weatherlink.com 1.10,2013-08-28 20:22:00,
2013-08-28 16:37:00,88.3,72.0,29.78,NW,326,0.0,2.0,58,0.00,,,0.00,weatherlink.com 1.10,2013-08-28 20:37:00,
2013-08-28 16:52:00,88.8,73.0,29.79,NNW,329,0.0,0.0,59,0.00,,,0.00,weatherlink.com 1.10,2013-08-28 20:52:00,
2013-08-28 17:07:00,88.5,70.0,29.79,West,280,0.0,2.0,54,0.00,,,0.00,weatherlink.com 1.10,2013-08-28 21:07:00,
2013-08-28 17:22:00,89.2,71.0,29.79,WNW,285,1.0,1.0,56,0.00,,,0.00,weatherlink.com 1.10,2013-08-28 21:22:00,
2013-08-28 17:37:00,88.3,73.0,29.79,WNW,284,0.0,0.0,61,0.00,,,0.00,weatherlink.com 1.10,2013-08-28 21:37:00,
2013-08-28 17:52:00,86.4,72.0,29.79,WNW,285,0.0,1.0,63,0.00,,,0.00,weatherlink.com 1.10,2013-08-28 21:52:00,
2013-08-28 18:08:00,84.4,74.0,29.79,WNW,283,0.0,0.0,70,0.00,,,0.00,weatherlink.com 1.10,2013-08-28 22:08:00,
2013-08-28 18:23:00,81.5,73.0,29.80,WNW,283,0.0,0.0,76,0.00,,,0.00,weatherlink.com 1.10,2013-08-28 22:23:00,
2013-08-28 18:38:00,79.2,73.0,29.80,WNW,283,0.0,0.0,81,0.00,,,0.00,weatherlink.com 1.10,2013-08-28 22:38:00,
2013-08-28 18:53:00,77.5,73.0,29.80,WNW,284,0.0,0.0,86,0.00,,,0.00,weatherlink.com 1.10,2013-08-28 22:53:00,
2013-08-28 19:08:00,76.6,73.0,29.81,WNW,283,0.0,0.0,87,0.00,,,0.00,weatherlink.com 1.10,2013-08-28 23:08:00,
2013-08-28 19:23:00,75.8,72.0,29.81,WNW,283,0.0,0.0,89,0.00,,,0.00,weatherlink.com 1.10,2013-08-28 23:23:00,
2013-08-28 19:38:00,75.1,72.0,29.81,WNW,284,0.0,0.0,90,0.00,,,0.00,weatherlink.com 1.10,2013-08-28 23:38:00,
2013-08-28 19:53:00,74.2,72.0,29.82,WNW,287,0.0,1.0,91,0.00,,,0.00,weatherlink.com 1.10,2013-08-28 23:53:00,
2013-08-28 20:08:00,74.0,71.0,29.83,North,3,0.0,1.0,91,0.00,,,0.00,weatherlink.com 1.10,2013-08-29 00:08:00,
2013-08-28 20:23:00,73.4,71.0,29.84,South,184,0.0,1.0,91,0.00,,,0.00,weatherlink.com 1.10,2013-08-29 00:23:00,
2013-08-28 20:38:00,72.8,70.0,29.85,South,184,0.0,1.0,91,0.00,,,0.00,weatherlink.com 1.10,2013-08-29 00:38:00,
2013-08-28 20:53:00,71.8,69.0,29.85,South,185,0.0,0.0,92,0.00,,,0.00,weatherlink.com 1.10,2013-08-29 00:53:00,
2013-08-28 21:08:00,71.0,69.0,29.85,South,185,0.0,0.0,94,0.00,,,0.00,weatherlink.com 1.10,2013-08-29 01:08:00,
2013-08-28 21:23:00,70.3,69.0,29.86,South,186,0.0,0.0,95,0.00,,,0.00,weatherlink.com 1.10,2013-08-29 01:23:00,
2013-08-28 21:38:00,69.8,69.0,29.86,South,184,0.0,0.0,96,0.00,,,0.00,weatherlink.com 1.10,2013-08-29 01:38:00,
2013-08-28 21:53:00,69.5,68.0,29.86,South,186,0.0,0.0,96,0.00,,,0.00,weatherlink.com 1.10,2013-08-29 01:53:00,
2013-08-28 22:08:00,69.0,68.0,29.86,South,186,0.0,0.0,97,0.00,,,0.00,weatherlink.com 1.10,2013-08-29 02:08:00,
2013-08-28 22:23:00,68.7,68.0,29.85,South,184,0.0,0.0,97,0.00,,,0.00,weatherlink.com 1.10,2013-08-29 02:23:00,
2013-08-28 22:38:00,68.2,67.0,29.86,South,185,0.0,0.0,97,0.00,,,0.00,weatherlink.com 1.10,2013-08-29 02:38:00,
2013-08-28 22:53:00,67.9,67.0,29.86,South,184,0.0,0.0,98,0.00,,,0.00,weatherlink.com 1.10,2013-08-29 02:53:00,
2013-08-28 23:08:00,67.7,67.0,29.86,South,185,0.0,0.0,98,0.00,,,0.00,weatherlink.com 1.10,2013-08-29 03:08:00,
2013-08-28 23:23:00,67.2,67.0,29.87,South,184,0.0,0.0,98,0.00,,,0.00,weatherlink.com 1.10,2013-08-29 03:23:00,
2013-08-28 23:37:00,67.2,67.0,29.88,South,186,0.0,0.0,98,0.00,,,0.00,weatherlink.com 1.10,2013-08-29 03:37:00,
2013-08-28 23:52:00,66.9,67.0,29.88,South,186,0.0,0.0,99,0.00,,,0.00,weatherlink.com 1.10,2013-08-29 03:52:00,